Regional Weather Roundup
Issued by NWS Kansas City/Pleasant Hill, MO

Home | Current Version | Previous Version | Text Only | Print | Product List | Glossary On
Versions: 1 2 3 4 5 6 7 8 9 10 11 12 13 14 15 16 17 18 19 20 21 22 23 24 25 26 27 28 29 30 31 32 33 34 35 36 37 38 39 40 41 42 43 44 45 46 47 48 49 50
395
ASUS43 KEAX 240610
RWREAX

WEATHER ROUNDUP FOR EASTERN KANSAS AND NORTHWEST MISSOURI
NATIONAL WEATHER SERVICE KANSAS CITY/PLEASANT HILL MO
1200 AM CST FRI NOV 24 2017

KSZ040-057-103>105-MOZ028-029-037-043-240700-
...KANSAS CITY METROPOLITAN AREA...

CITY           SKY/WX    TMP DP  RH WIND       PRES   REMARKS
K.C. INTL      CLOUDY    53  35  50 S10       29.86F
6HR MIN TEMP:  44; 6HR MAX TEMP:  53;

K.C. DOWNTOWN  CLOUDY    53  35  50 S7        29.86F
6HR MIN TEMP:  47; 6HR MAX TEMP:  53;

LEES SUMMIT    CLOUDY    51  35  54 S10       29.88F
6HR MIN TEMP:  50; 6HR MAX TEMP:  56;

OLATHE - IXD   PTCLDY    47  35  63 S8        29.88F
6HR MIN TEMP:  45; 6HR MAX TEMP:  53;

OLATHE - OJC   PTCLDY    48  34  58 S9        29.88F
6HR MIN TEMP:  47; 6HR MAX TEMP:  53;

LAWRENCE       PTCLDY    48  37  65 E3        29.87F

$$

MOZ001>008-011>017-020>025-030>033-038>040-044>046-053-054-240700-
...NORTHERN AND CENTRAL MISSOURI...

CITY           SKY/WX    TMP DP  RH WIND       PRES   REMARKS
ST. JOSEPH     PTCLDY    51  37  58 SE5       29.83F
6HR MIN TEMP:  42; 6HR MAX TEMP:  51;

MOSBY          CLOUDY    41  34  75 CALM      29.87F
WARRENSBURG    PTCLDY    45  32  61 S7        29.90F
WHITEMAN AFB   CLOUDY    41  33  73 S7        29.86F
6HR MIN TEMP:  40; 6HR MAX TEMP:  49;

CLINTON        CLOUDY    46  32  57 MISG      29.93S
SEDALIA        CLEAR     47  35  63 SW9       29.92F
6HR MIN TEMP:  44; 6HR MAX TEMP:  54;

WARSAW         NOT AVBL
CHILLICOTHE      N/A     48  36  63 S6        29.87F
6HR MIN TEMP:  38; 6HR MAX TEMP:  48;

KIRKSVILLE     CLOUDY    38  33  82 S7        29.87F WCI  33
6HR MIN TEMP:  35; 6HR MAX TEMP:  47;


$$

MOZ041-047>049-056>058-063>065-088>090-097-240700-
...EASTERN AND SOUTHERN MISSOURI...

CITY           SKY/WX    TMP DP  RH WIND       PRES   REMARKS
ST. LOUIS INTL CLEAR     37  30  75 CALM      29.94F
6HR MIN TEMP:  35; 6HR MAX TEMP:  49;

SPIRIT OF STL  CLEAR     31  28  89 CALM      29.93F
COLUMBIA       CLOUDY    39  32  76 S8        29.92F WCI  33
JEFFERSON CITY CLOUDY    34  31  88 SE5       29.94F WCI  30
ROLLA          CLOUDY    41  31  67 SW5       29.94F
OSAGE BEACH    PTCLDY    37  31  78 CALM      29.95F
SPRINGFIELD    CLOUDY    41  31  67 S6        29.95F
BRANSON        CLOUDY    50  28  43 CALM      29.98S
JOPLIN         CLOUDY    50  32  50 SW9       29.95F
WEST PLAINS    CLEAR     41  27  57 W3        29.98S

$$

IAZ060-094-KSZ022-034>040-054-083-096-NEZ052-066-093-240700-
...KANSAS...SOUTHEAST NEBRASKA AND IOWA...

CITY           SKY/WX    TMP DP  RH WIND       PRES   REMARKS
TOPEKA         CLOUDY    54  36  50 SW3       29.85F
6HR MIN TEMP:  47; 6HR MAX TEMP:  58;

MANHATTAN      CLOUDY    50  37  61 SW7       29.82F
EMPORIA        CLOUDY    48  34  58 S12       29.87F
CHANUTE        CLOUDY    50  33  52 S9        29.92F
WICHITA        MOCLDY    46  36  68 S8        29.88F
OMAHA          PTCLDY    46  37  71 SE10      29.72F
LINCOLN        PTCLDY    53  40  61 S10       29.74F
FALLS CITY     PTCLDY    54  38  54 S15       29.79F
LAMONI         CLOUDY    50  36  58 S13       29.81F
DES MOINES     CLOUDY    51  36  56 S15       29.76F

$$





USA.gov is the U.S. government's official web portal to all federal, state and local government web resources and services.